TimeEDT,TemperatureF,Dew PointF,Humidity,Sea Level PressureIn,VisibilityMPH,Wind Direction,Wind SpeedMPH,Gust SpeedMPH,PrecipitationIn,Events,Conditions,WindDirDegrees,DateUTC
12:15 AM,60.8,57.2,88,30.18,10.0,South,6.9,-,N/A,,Overcast,190,2014-03-29 04:15:00
12:35 AM,60.8,57.2,88,30.18,10.0,South,6.9,-,N/A,,Overcast,190,2014-03-29 04:35:00
12:55 AM,60.8,57.2,88,30.18,10.0,South,9.2,-,N/A,,Overcast,180,2014-03-29 04:55:00
1:15 AM,60.8,57.2,88,30.18,8.0,South,6.9,-,0.01,,Overcast,180,2014-03-29 05:15:00
1:35 AM,60.8,57.2,88,30.17,7.0,South,8.1,-,0.01,,Overcast,180,2014-03-29 05:35:00
1:55 AM,60.8,57.2,88,30.17,7.0,South,9.2,-,0.03,,Overcast,170,2014-03-29 05:55:00
2:15 AM,60.8,57.2,88,30.16,5.0,South,8.1,-,0.08,,Overcast,170,2014-03-29 06:15:00
2:35 AM,60.8,57.2,88,30.15,4.0,SSE,4.6,-,0.16,,Overcast,150,2014-03-29 06:35:00
2:55 AM,60.8,57.2,88,30.14,6.0,SE,3.5,-,0.20,,Overcast,130,2014-03-29 06:55:00
3:15 AM,60.8,57.2,88,30.13,6.0,SSE,5.8,-,0.05,,Overcast,160,2014-03-29 07:15:00
3:35 AM,60.8,57.2,88,30.13,7.0,South,4.6,-,0.13,,Overcast,180,2014-03-29 07:35:00
3:55 AM,60.8,57.2,88,30.12,9.0,South,6.9,-,0.16,,Overcast,180,2014-03-29 07:55:00
4:15 AM,60.8,57.2,88,30.11,7.0,South,6.9,-,0.02,,Overcast,170,2014-03-29 08:15:00
4:35 AM,60.8,57.2,88,30.11,7.0,SSE,6.9,-,0.06,,Overcast,160,2014-03-29 08:35:00
4:55 AM,60.8,57.2,88,30.10,9.0,SSE,9.2,-,0.08,,Overcast,150,2014-03-29 08:55:00
5:15 AM,60.8,57.2,88,30.09,10.0,SSE,9.2,-,0.01,,Overcast,160,2014-03-29 09:15:00
5:35 AM,60.8,57.2,88,30.08,10.0,SSE,10.4,-,0.01,,Overcast,160,2014-03-29 09:35:00
5:55 AM,60.8,57.2,88,30.08,9.0,SSE,9.2,-,0.02,,Overcast,160,2014-03-29 09:55:00
6:15 AM,60.8,57.2,88,30.08,10.0,South,12.7,18.4,N/A,,Mostly Cloudy,170,2014-03-29 10:15:00
6:35 AM,60.8,57.2,88,30.08,10.0,South,11.5,-,N/A,,Mostly Cloudy,180,2014-03-29 10:35:00
6:55 AM,60.8,57.2,88,30.08,10.0,South,9.2,19.6,0.01,,Overcast,170,2014-03-29 10:55:00
7:15 AM,60.8,57.2,88,30.08,5.0,South,9.2,-,0.03,,Overcast,170,2014-03-29 11:15:00
7:35 AM,60.8,57.2,88,30.09,6.0,South,6.9,-,0.06,,Overcast,180,2014-03-29 11:35:00
7:55 AM,60.8,57.2,88,30.09,7.0,South,6.9,-,0.08,,Overcast,180,2014-03-29 11:55:00
8:15 AM,60.8,57.2,88,30.09,6.0,South,8.1,-,0.01,,Overcast,170,2014-03-29 12:15:00
8:35 AM,60.8,57.2,88,30.09,6.0,South,6.9,-,0.03,,Overcast,170,2014-03-29 12:35:00
8:55 AM,60.8,57.2,88,30.08,8.0,SSE,10.4,-,0.04,,Overcast,160,2014-03-29 12:55:00
9:15 AM,60.8,57.2,88,30.08,8.0,South,8.1,-,0.01,,Overcast,170,2014-03-29 13:15:00
9:35 AM,60.8,57.2,88,30.07,7.0,South,8.1,-,0.02,,Overcast,190,2014-03-29 13:35:00
9:55 AM,60.8,59.0,94,30.07,8.0,South,6.9,-,0.03,,Overcast,170,2014-03-29 13:55:00
10:15 AM,60.8,59.0,94,30.06,8.0,SSE,8.1,-,0.01,,Overcast,160,2014-03-29 14:15:00
10:35 AM,62.6,60.8,94,30.05,9.0,South,8.1,-,0.01,,Mostly Cloudy,170,2014-03-29 14:35:00
10:55 AM,62.6,60.8,94,30.04,8.0,South,6.9,-,0.01,,Mostly Cloudy,180,2014-03-29 14:55:00
11:15 AM,62.6,60.8,94,30.03,9.0,SSE,8.1,-,N/A,,Mostly Cloudy,150,2014-03-29 15:15:00
11:35 AM,62.6,60.8,94,30.02,9.0,South,10.4,-,N/A,,Mostly Cloudy,170,2014-03-29 15:35:00
11:55 AM,64.4,62.6,94,30.01,10.0,South,9.2,17.3,N/A,,Mostly Cloudy,170,2014-03-29 15:55:00
12:15 PM,66.2,62.6,88,29.99,10.0,South,8.1,19.6,N/A,,Mostly Cloudy,170,2014-03-29 16:15:00
12:35 PM,66.2,62.6,88,29.97,10.0,South,8.1,-,N/A,,Mostly Cloudy,180,2014-03-29 16:35:00
12:55 PM,69.8,62.6,78,29.96,10.0,South,11.5,19.6,N/A,,Mostly Cloudy,180,2014-03-29 16:55:00
1:15 PM,69.8,62.6,78,29.94,10.0,South,11.5,20.7,N/A,,Overcast,170,2014-03-29 17:15:00
1:35 PM,69.8,62.6,78,29.92,10.0,SSE,11.5,19.6,N/A,,Overcast,150,2014-03-29 17:35:00
1:55 PM,69.8,62.6,78,29.90,10.0,SSE,16.1,24.2,N/A,,Overcast,160,2014-03-29 17:55:00
2:15 PM,69.8,62.6,78,29.88,10.0,South,15.0,20.7,N/A,,Overcast,170,2014-03-29 18:15:00
2:35 PM,69.8,60.8,73,29.87,10.0,South,18.4,27.6,N/A,,Overcast,170,2014-03-29 18:35:00
2:55 PM,66.2,62.6,88,29.86,8.0,South,11.5,19.6,0.01,,Mostly Cloudy,170,2014-03-29 18:55:00
3:15 PM,66.2,62.6,88,29.84,10.0,SSE,12.7,-,N/A,,Overcast,150,2014-03-29 19:15:00
3:35 PM,66.2,62.6,88,29.83,8.0,South,12.7,23.0,0.01,,Mostly Cloudy,180,2014-03-29 19:35:00
3:55 PM,64.4,62.6,94,29.83,6.0,South,15.0,21.9,0.05,,Overcast,170,2014-03-29 19:55:00
4:15 PM,64.4,62.6,94,29.82,10.0,South,12.7,18.4,0.02,,Overcast,170,2014-03-29 20:15:00
4:35 PM,64.4,60.8,88,29.80,10.0,SSE,9.2,21.9,0.02,,Overcast,160,2014-03-29 20:35:00
4:55 PM,64.4,60.8,88,29.75,8.0,SE,13.8,20.7,0.06,,Overcast,130,2014-03-29 20:55:00
5:15 PM,64.4,60.8,88,29.78,10.0,South,9.2,17.3,N/A,,Mostly Cloudy,170,2014-03-29 21:15:00
5:35 PM,64.4,60.8,88,29.76,10.0,South,13.8,26.5,N/A,,Overcast,170,2014-03-29 21:35:00
5:55 PM,64.4,60.8,88,29.76,10.0,SSE,16.1,21.9,N/A,,Overcast,160,2014-03-29 21:55:00
6:15 PM,64.4,60.8,88,29.75,6.0,SSE,17.3,23.0,0.01,,Overcast,160,2014-03-29 22:15:00
6:35 PM,62.6,60.8,94,29.75,3.0,South,13.8,20.7,0.02,,Overcast,170,2014-03-29 22:35:00
6:55 PM,62.6,60.8,94,29.73,10.0,SSE,11.5,18.4,0.03,,Overcast,160,2014-03-29 22:55:00
7:15 PM,62.6,60.8,94,29.72,8.0,SSE,11.5,21.9,N/A,,Overcast,150,2014-03-29 23:15:00
7:35 PM,62.6,60.8,94,29.71,9.0,South,11.5,17.3,N/A,,Overcast,170,2014-03-29 23:35:00
7:55 PM,62.6,60.8,94,29.70,6.0,SSE,11.5,-,N/A,,Overcast,160,2014-03-29 23:55:00
8:15 PM,62.6,60.8,94,29.70,10.0,South,13.8,20.7,N/A,,Overcast,170,2014-03-30 00:15:00
8:35 PM,64.4,62.6,94,29.69,9.0,South,11.5,17.3,N/A,,Overcast,190,2014-03-30 00:35:00
8:55 PM,64.4,62.6,94,29.68,10.0,South,9.2,16.1,N/A,,Overcast,180,2014-03-30 00:55:00
9:15 PM,64.4,62.6,94,29.68,10.0,South,9.2,17.3,N/A,,Overcast,190,2014-03-30 01:15:00
9:35 PM,64.4,62.6,94,29.67,10.0,South,10.4,-,N/A,,Overcast,180,2014-03-30 01:35:00
9:55 PM,64.4,62.6,94,29.67,10.0,South,8.1,16.1,N/A,,Overcast,180,2014-03-30 01:55:00
10:15 PM,64.4,62.6,94,29.66,10.0,South,8.1,17.3,N/A,,Overcast,180,2014-03-30 02:15:00
10:35 PM,64.4,62.6,94,29.65,10.0,South,9.2,-,N/A,,Mostly Cloudy,180,2014-03-30 02:35:00
10:55 PM,64.4,62.6,94,29.65,10.0,South,6.9,-,N/A,,Overcast,180,2014-03-30 02:55:00
11:15 PM,64.4,62.6,94,29.63,10.0,South,6.9,-,N/A,,Overcast,180,2014-03-30 03:15:00
11:35 PM,64.4,62.6,94,29.61,10.0,South,6.9,-,N/A,,Overcast,180,2014-03-30 03:35:00
11:55 PM,64.4,62.6,94,29.60,10.0,South,6.9,-,N/A,,Overcast,190,2014-03-30 03:55:00